Location: Newark
(35.6000°N, 117.0333°E)
Time: 17:27:42
(UTC+00:00)

Hubble Space Telescope - Visible Passes

Search period start: 23 August 2019 00:00
Search period end: 02 September 2019 00:00
Orbit: 536 x 540 km, 28.5° (Epoch: 23 August)

Date Brightness Start Highest point End Pass type
(mag) Time Alt. Az. Time Alt. Az. Time Alt. Az.
23 Aug 2.9 11:38:54 10° WSW 11:41:28 16° SSW 11:44:02 10° SSE visible
24 Aug 3.1 11:28:46 10° SW 11:30:49 13° SSW 11:32:52 10° S visible
25 Aug 3.3 11:19:01 10° SW 11:20:09 11° SSW 11:21:17 10° S visible
